7 * 24
多渠道服务支持
STARLINK-37580(NORAD编号100019)是美国太空探索技术公司(SpaceX)星链星座的第三代通信卫星,于2025年下半年由星舰运载火箭发射入轨,隶属于SpaceX第三代星链组网序列。 该卫星运行于323-327.5公里的甚低地球轨道,轨道倾角约53度,单星下行通信容量达1Tbps,搭载氩霍尔推进器与激光星间链路,支持直接连接普通LTE终端提供语音、数据及应急通信服务,可覆盖地面基站难以触及的偏远、灾害区域。截至2026年7月,该卫星在轨运行状态稳定,已接入星链全球网络为跨洲用户提供低延迟宽带通信服务,是星链第三代扩容组网的重要组成节点。
美国
(US)
| 数据来源 | 国际轨道数据 |
| 星历时间: | 2026-09-15T15:04:11+0800 6小时前 查看轨道信息 |
| 半长轴: | 6726.946km |
| 偏心率: | 0.0005812 |
| 轨道倾角: | 70.002° |
| 近地点辐角 | 267.168° |
| 升交点赤经 | 209.590° |
| 平近点角 | 92.885° |
| 近地点: | 344.899km |
| 远地点: | 352.719km |
| 周期: | 91.514分钟 |
| 每日圈数: | 15.735333 |